Location: Unspecified
(48.8656°N, 0.0000°E)
Time: 00:26:26
(UTC+00:00)

Vanguard 1 - Pass Details

Date: 17 June 2019
Orbit: 653 x 3830 km, 34.3° (Epoch: 20 July)

Event Time Altitude Azimuth Distance (km) Brightness Sun altitude
Rises 01:43:39 0° 197° (SSW) 7,355 - -14.2°
Exits shadow 01:51:38 - 180° (S) 5,815 13.4 -13.6°
Reaches altitude 10° 01:52:25 10° 178° (S) 5,674 13.4 -13.6°
Maximum altitude 01:59:30 14° 152° (SSE) 4,624 13.2 -13.1°
Drops below altitude 10° 02:05:09 10° 124° (SE) 4,364 13.3 -12.6°
Sets 02:10:06 0° 101° (ESE) 4,763 13.8 -12.2°
